START_TIME,STEP,MOV.,P1,t_acc.,E44,t_acc.,A3,t_acc.,P10,t_acc.
1979-07-17 00:00:23.270 ,0,0,20.,1.2,2368.,1.2,0.,1.2,0.,1.2
1979-07-17 00:00:24.470 ,0,0,14.,1.2,2496.,1.2,0.,1.2,1.,1.2
1979-07-17 00:00:25.670 ,0,0,14.,1.2,2432.,1.2,0.,1.2,0.,1.2
1979-07-17 00:00:26.870 ,0,0,17.,1.2,2432.,1.2,0.,1.2,0.,1.2
1979-07-17 00:00:28.070 ,0,0,18.,1.2,2368.,1.2,0.,1.2,0.,1.2
1979-07-17 00:00:29.270 ,0,0,20.,1.2,2368.,1.2,0.,1.2,0.,1.2
1979-07-17 00:00:30.470 ,0,0,11.,1.2,2368.,1.2,1.,1.2,0.,1.2
1979-07-17 00:00:31.670 ,0,0,16.,1.2,2432.,1.2,0.,1.2,1.,1.2
1979-07-17 00:00:32.870 ,0,0,13.,1.2,2368.,1.2,0.,1.2,0.,1.2
1979-07-17 00:00:34.070 ,0,0,18.,1.2,2432.,1.2,0.,1.2,1.,1.2
1979-07-17 00:00:35.270 ,0,0,23.,1.2,2432.,1.2,1.,1.2,2.,1.2
1979-07-17 00:00:36.470 ,0,0,18.,1.2,2432.,1.2,0.,1.2,1.,1.2
1979-07-17 00:00:37.670 ,0,0,19.,1.2,2432.,1.2,1.,1.2,1.,1.2
1979-07-17 00:00:38.870 ,0,0,17.,1.2,2368.,1.2,0.,1.2,0.,1.2
1979-07-17 00:00:40.070 ,0,0,23.,1.2,2496.,1.2,0.,1.2,0.,1.2
1979-07-17 00:00:41.270 ,0,0,17.,1.2,2432.,1.2,0.,1.2,1.,1.2
1979-07-17 00:00:42.470 ,0,0,20.,1.2,2432.,1.2,1.,1.2,0.,1.2
1979-07-17 00:00:43.670 ,0,0,21.,1.2,2368.,1.2,0.,1.2,0.,1.2
1979-07-17 00:00:44.870 ,0,0,20.,1.2,2368.,1.2,0.,1.2,0.,1.2
1979-07-17 00:00:46.070 ,0,0,24.,1.2,2496.,1.2,0.,1.2,0.,1.2
1979-07-17 00:00:47.270 ,1,0,18.,1.2,2496.,1.2,0.,1.2,0.,1.2
1979-07-17 00:00:48.470 ,1,0,18.,1.2,2432.,1.2,0.,1.2,0.,1.2
1979-07-17 00:00:49.670 ,1,0,22.,1.2,2560.,1.2,0.,1.2,0.,1.2
1979-07-17 00:00:50.870 ,1,0,14.,1.2,2688.,1.2,2.,1.2,0.,1.2
1979-07-17 00:00:52.070 ,1,0,16.,1.2,2688.,1.2,0.,1.2,0.,1.2
1979-07-17 00:00:53.270 ,1,0,22.,1.2,3008.,1.2,0.,1.2,0.,1.2
1979-07-17 00:00:54.470 ,1,0,23.,1.2,2688.,1.2,0.,1.2,1.,1.2
1979-07-17 00:00:55.670 ,1,0,26.,1.2,2624.,1.2,0.,1.2,0.,1.2
1979-07-17 00:00:56.870 ,1,0,23.,1.2,2688.,1.2,1.,1.2,1.,1.2
1979-07-17 00:00:58.070 ,1,0,34.,1.2,2624.,1.2,0.,1.2,0.,1.2
1979-07-17 00:00:59.270 ,1,0,23.,1.2,2624.,1.2,2.,1.2,0.,1.2
1979-07-17 00:01:00.470 ,1,0,29.,1.2,2624.,1.2,2.,1.2,0.,1.2
1979-07-17 00:01:01.670 ,1,0,30.,1.2,2560.,1.2,0.,1.2,0.,1.2
1979-07-17 00:01:02.870 ,1,0,25.,1.2,2688.,1.2,0.,1.2,0.,1.2
1979-07-17 00:01:04.070 ,1,0,28.,1.2,2624.,1.2,0.,1.2,0.,1.2
1979-07-17 00:01:05.270 ,1,0,30.,1.2,2688.,1.2,0.,1.2,0.,1.2
1979-07-17 00:01:06.470 ,1,0,24.,1.2,2624.,1.2,2.,1.2,0.,1.2
1979-07-17 00:01:07.670 ,1,0,33.,1.2,2624.,1.2,0.,1.2,0.,1.2
1979-07-17 00:01:08.870 ,1,0,21.,1.2,2624.,1.2,1.,1.2,0.,1.2
1979-07-17 00:01:10.070 ,1,0,26.,1.2,2688.,1.2,2.,1.2,0.,1.2
1979-07-17 00:01:11.270 ,1,0,20.,1.2,2560.,1.2,0.,1.2,1.,1.2
1979-07-17 00:01:12.470 ,1,0,17.,1.2,2752.,1.2,0.,1.2,0.,1.2
1979-07-17 00:01:13.670 ,1,0,37.,1.2,2624.,1.2,0.,1.2,0.,1.2
1979-07-17 00:01:14.870 ,1,0,30.,1.2,2624.,1.2,0.,1.2,0.,1.2
1979-07-17 00:01:16.070 ,1,0,20.,1.2,2688.,1.2,0.,1.2,3.,1.2
1979-07-17 00:01:17.270 ,1,0,25.,1.2,2688.,1.2,1.,1.2,0.,1.2
1979-07-17 00:01:18.470 ,1,0,24.,1.2,2624.,1.2,2.,1.2,0.,1.2
1979-07-17 00:01:19.670 ,1,0,16.,1.2,2688.,1.2,0.,1.2,0.,1.2
1979-07-17 00:01:20.870 ,1,0,24.,1.2,2624.,1.2,2.,1.2,0.,1.2
1979-07-17 00:01:22.070 ,1,0,26.,1.2,2688.,1.2,0.,1.2,1.,1.2
1979-07-17 00:01:23.270 ,1,0,18.,1.2,2752.,1.2,0.,1.2,0.,1.2
1979-07-17 00:01:24.470 ,1,0,25.,1.2,2752.,1.2,2.,1.2,0.,1.2
1979-07-17 00:01:25.670 ,1,0,31.,1.2,2688.,1.2,0.,1.2,0.,1.2
1979-07-17 00:01:26.870 ,1,0,29.,1.2,2752.,1.2,2.,1.2,0.,1.2
1979-07-17 00:01:28.070 ,1,0,18.,1.2,2688.,1.2,0.,1.2,0.,1.2
1979-07-17 00:01:29.270 ,1,0,15.,1.2,2752.,1.2,2.,1.2,0.,1.2
1979-07-17 00:01:30.470 ,1,0,27.,1.2,2624.,1.2,0.,1.2,0.,1.2
1979-07-17 00:01:31.670 ,1,0,25.,1.2,2688.,1.2,0.,1.2,0.,1.2
1979-07-17 00:01:32.870 ,1,0,18.,1.2,2752.,1.2,0.,1.2,0.,1.2
1979-07-17 00:01:34.070 ,1,0,23.,1.2,2624.,1.2,0.,1.2,0.,1.2
1979-07-17 00:01:35.270 ,2,0,25.,1.2,2624.,1.2,2.,1.2,1.,1.2
1979-07-17 00:01:36.470 ,2,0,23.,1.2,2752.,1.2,1.,1.2,0.,1.2
1979-07-17 00:01:37.670 ,2,0,22.,1.2,2560.,1.2,0.,1.2,0.,1.2
1979-07-17 00:01:38.870 ,2,0,25.,1.2,2624.,1.2,0.,1.2,0.,1.2
1979-07-17 00:01:40.070 ,2,0,21.,1.2,2624.,1.2,1.,1.2,0.,1.2
1979-07-17 00:01:41.270 ,2,0,21.,1.2,2880.,1.2,0.,1.2,0.,1.2
1979-07-17 00:01:42.470 ,2,0,31.,1.2,2240.,1.2,1.,1.2,1.,1.2
1979-07-17 00:01:43.670 ,2,0,23.,1.2,2240.,1.2,1.,1.2,1.,1.2
1979-07-17 00:01:44.870 ,2,0,39.,1.2,2304.,1.2,2.,1.2,1.,1.2
1979-07-17 00:01:46.070 ,2,0,26.,1.2,2304.,1.2,1.,1.2,1.,1.2
1979-07-17 00:01:47.270 ,2,0,37.,1.2,2304.,1.2,0.,1.2,0.,1.2
1979-07-17 00:01:48.470 ,2,0,41.,1.2,2240.,1.2,1.,1.2,0.,1.2
1979-07-17 00:01:49.670 ,2,0,40.,1.2,2304.,1.2,1.,1.2,0.,1.2
1979-07-17 00:01:50.870 ,2,0,34.,1.2,2368.,1.2,3.,1.2,0.,1.2
1979-07-17 00:01:52.070 ,2,0,36.,1.2,2368.,1.2,3.,1.2,0.,1.2
1979-07-17 00:01:53.270 ,2,0,29.,1.2,2304.,1.2,0.,1.2,0.,1.2
1979-07-17 00:01:54.470 ,2,0,41.,1.2,2240.,1.2,1.,1.2,0.,1.2
1979-07-17 00:01:55.670 ,2,0,43.,1.2,2240.,1.2,0.,1.2,0.,1.2
1979-07-17 00:01:56.870 ,2,0,38.,1.2,2240.,1.2,0.,1.2,0.,1.2
1979-07-17 00:01:58.070 ,2,0,38.,1.2,2240.,1.2,1.,1.2,0.,1.2
1979-07-17 00:01:59.270 ,2,0,32.,1.2,2304.,1.2,2.,1.2,0.,1.2
1979-07-17 00:02:00.470 ,2,0,23.,1.2,2240.,1.2,0.,1.2,1.,1.2
1979-07-17 00:02:01.670 ,2,0,41.,1.2,2304.,1.2,0.,1.2,0.,1.2
1979-07-17 00:02:02.870 ,2,0,31.,1.2,2304.,1.2,0.,1.2,0.,1.2
1979-07-17 00:02:04.070 ,2,0,30.,1.2,2304.,1.2,0.,1.2,0.,1.2
1979-07-17 00:02:05.270 ,2,0,32.,1.2,2368.,1.2,1.,1.2,0.,1.2
1979-07-17 00:02:06.470 ,2,0,38.,1.2,2368.,1.2,2.,1.2,1.,1.2
1979-07-17 00:02:07.670 ,2,0,28.,1.2,2368.,1.2,0.,1.2,0.,1.2
1979-07-17 00:02:08.870 ,2,0,31.,1.2,2304.,1.2,1.,1.2,0.,1.2
1979-07-17 00:02:10.070 ,2,0,42.,1.2,2368.,1.2,0.,1.2,0.,1.2
1979-07-17 00:02:11.270 ,2,0,37.,1.2,2304.,1.2,0.,1.2,0.,1.2
1979-07-17 00:02:12.470 ,2,0,37.,1.2,2432.,1.2,0.,1.2,0.,1.2
1979-07-17 00:02:13.670 ,2,0,28.,1.2,2304.,1.2,3.,1.2,1.,1.2
1979-07-17 00:02:14.870 ,2,0,43.,1.2,2368.,1.2,0.,1.2,0.,1.2
1979-07-17 00:02:16.070 ,2,0,26.,1.2,2304.,1.2,1.,1.2,0.,1.2
1979-07-17 00:02:17.270 ,2,0,32.,1.2,2240.,1.2,2.,1.2,0.,1.2
1979-07-17 00:02:18.470 ,2,0,32.,1.2,2304.,1.2,0.,1.2,0.,1.2
1979-07-17 00:02:19.670 ,2,0,25.,1.2,2304.,1.2,0.,1.2,1.,1.2
1979-07-17 00:02:20.870 ,2,0,35.,1.2,2240.,1.2,0.,1.2,0.,1.2
1979-07-17 00:02:22.070 ,2,0,28.,1.2,2304.,1.2,1.,1.2,1.,1.2
1979-07-17 00:02:23.270 ,3,0,18.,1.2,2240.,1.2,0.,1.2,0.,1.2
1979-07-17 00:02:24.470 ,3,0,45.,1.2,2368.,1.2,2.,1.2,0.,1.2
1979-07-17 00:02:25.670 ,3,0,30.,1.2,2304.,1.2,1.,1.2,0.,1.2
1979-07-17 00:02:26.870 ,3,0,40.,1.2,2304.,1.2,1.,1.2,1.,1.2
1979-07-17 00:02:28.070 ,3,0,32.,1.2,2368.,1.2,2.,1.2,0.,1.2
1979-07-17 00:02:29.270 ,3,0,38.,1.2,1920.,1.2,0.,1.2,0.,1.2
1979-07-17 00:02:30.470 ,3,0,34.,1.2,312.,1.2,1.,1.2,0.,1.2
1979-07-17 00:02:31.670 ,3,0,32.,1.2,320.,1.2,1.,1.2,1.,1.2
1979-07-17 00:02:32.870 ,3,0,25.,1.2,336.,1.2,1.,1.2,0.,1.2
1979-07-17 00:02:34.070 ,3,0,30.,1.2,328.,1.2,0.,1.2,0.,1.2
1979-07-17 00:02:35.270 ,3,0,35.,1.2,336.,1.2,0.,1.2,1.,1.2
1979-07-17 00:02:36.470 ,3,0,31.,1.2,336.,1.2,1.,1.2,1.,1.2
1979-07-17 00:02:37.670 ,3,0,37.,1.2,312.,1.2,1.,1.2,1.,1.2
1979-07-17 00:02:38.870 ,3,0,27.,1.2,312.,1.2,2.,1.2,0.,1.2
1979-07-17 00:02:40.070 ,3,0,42.,1.2,336.,1.2,1.,1.2,0.,1.2
1979-07-17 00:02:41.270 ,3,0,30.,1.2,312.,1.2,0.,1.2,0.,1.2
1979-07-17 00:02:42.470 ,3,0,27.,1.2,336.,1.2,1.,1.2,0.,1.2
1979-07-17 00:02:43.670 ,3,0,38.,1.2,304.,1.2,0.,1.2,0.,1.2
1979-07-17 00:02:44.870 ,3,0,32.,1.2,312.,1.2,1.,1.2,1.,1.2
1979-07-17 00:02:46.070 ,3,0,25.,1.2,320.,1.2,0.,1.2,0.,1.2
1979-07-17 00:02:47.270 ,3,0,41.,1.2,352.,1.2,0.,1.2,0.,1.2
1979-07-17 00:02:48.470 ,3,0,47.,1.2,320.,1.2,1.,1.2,0.,1.2
1979-07-17 00:02:49.670 ,3,0,39.,1.2,336.,1.2,2.,1.2,0.,1.2
1979-07-17 00:02:50.870 ,3,0,32.,1.2,328.,1.2,1.,1.2,0.,1.2
1979-07-17 00:02:52.070 ,3,0,33.,1.2,320.,1.2,0.,1.2,0.,1.2
1979-07-17 00:02:53.270 ,3,0,23.,1.2,312.,1.2,1.,1.2,0.,1.2
1979-07-17 00:02:54.470 ,3,0,17.,1.2,336.,1.2,0.,1.2,0.,1.2
1979-07-17 00:02:55.670 ,3,0,31.,1.2,280.,1.2,1.,1.2,0.,1.2
1979-07-17 00:02:56.870 ,3,0,35.,1.2,312.,1.2,0.,1.2,0.,1.2
1979-07-17 00:02:58.070 ,3,0,32.,1.2,344.,1.2,2.,1.2,0.,1.2
1979-07-17 00:02:59.270 ,3,0,29.,1.2,336.,1.2,0.,1.2,0.,1.2
1979-07-17 00:03:00.470 ,3,0,25.,1.2,344.,1.2,3.,1.2,0.,1.2
1979-07-17 00:03:01.670 ,3,0,21.,1.2,352.,1.2,1.,1.2,0.,1.2
1979-07-17 00:03:02.870 ,3,0,38.,1.2,312.,1.2,1.,1.2,0.,1.2
1979-07-17 00:03:04.070 ,3,0,32.,1.2,328.,1.2,0.,1.2,1.,1.2
1979-07-17 00:03:05.270 ,3,0,32.,1.2,312.,1.2,0.,1.2,0.,1.2
1979-07-17 00:03:06.470 ,3,0,35.,1.2,328.,1.2,1.,1.2,0.,1.2
1979-07-17 00:03:07.670 ,3,0,32.,1.2,304.,1.2,3.,1.2,0.,1.2
1979-07-17 00:03:08.870 ,3,0,41.,1.2,304.,1.2,0.,1.2,1.,1.2
1979-07-17 00:03:10.070 ,3,0,29.,1.2,312.,1.2,0.,1.2,0.,1.2
1979-07-17 00:03:11.270 ,4,0,35.,1.2,344.,1.2,1.,1.2,0.,1.2
1979-07-17 00:03:12.470 ,4,0,39.,1.2,344.,1.2,1.,1.2,0.,1.2
1979-07-17 00:03:13.670 ,4,0,30.,1.2,352.,1.2,3.,1.2,0.,1.2
1979-07-17 00:03:14.870 ,4,0,23.,1.2,312.,1.2,3.,1.2,1.,1.2
1979-07-17 00:03:16.070 ,4,0,37.,1.2,352.,1.2,2.,1.2,1.,1.2
1979-07-17 00:03:17.270 ,4,0,29.,1.2,1600.,1.2,1.,1.2,0.,1.2
1979-07-17 00:03:18.470 ,4,0,27.,1.2,2432.,1.2,1.,1.2,0.,1.2
1979-07-17 00:03:19.670 ,4,0,37.,1.2,2368.,1.2,0.,1.2,0.,1.2
1979-07-17 00:03:20.870 ,4,0,28.,1.2,2432.,1.2,3.,1.2,0.,1.2
1979-07-17 00:03:22.070 ,4,0,41.,1.2,2368.,1.2,0.,1.2,0.,1.2
1979-07-17 00:03:23.270 ,4,0,33.,1.2,2432.,1.2,2.,1.2,1.,1.2
1979-07-17 00:03:24.470 ,4,0,27.,1.2,2496.,1.2,2.,1.2,0.,1.2
1979-07-17 00:03:25.670 ,4,0,25.,1.2,2496.,1.2,0.,1.2,0.,1.2
1979-07-17 00:03:26.870 ,4,0,32.,1.2,2432.,1.2,0.,1.2,0.,1.2
1979-07-17 00:03:28.070 ,4,0,20.,1.2,2496.,1.2,0.,1.2,0.,1.2
1979-07-17 00:03:29.270 ,4,0,30.,1.2,2432.,1.2,0.,1.2,0.,1.2
1979-07-17 00:03:30.470 ,4,0,26.,1.2,2496.,1.2,1.,1.2,0.,1.2
1979-07-17 00:03:31.670 ,4,0,31.,1.2,2496.,1.2,1.,1.2,0.,1.2
1979-07-17 00:03:32.870 ,4,0,30.,1.2,2496.,1.2,1.,1.2,2.,1.2
1979-07-17 00:03:34.070 ,4,0,30.,1.2,2560.,1.2,0.,1.2,0.,1.2
1979-07-17 00:03:35.270 ,4,0,27.,1.2,2432.,1.2,0.,1.2,0.,1.2
1979-07-17 00:03:36.470 ,4,0,33.,1.2,2432.,1.2,0.,1.2,0.,1.2
1979-07-17 00:03:37.670 ,4,0,28.,1.2,2432.,1.2,1.,1.2,0.,1.2
1979-07-17 00:03:38.870 ,4,0,28.,1.2,2496.,1.2,0.,1.2,0.,1.2
1979-07-17 00:03:40.070 ,4,0,22.,1.2,2496.,1.2,1.,1.2,0.,1.2
1979-07-17 00:03:41.270 ,4,0,27.,1.2,2496.,1.2,0.,1.2,1.,1.2
1979-07-17 00:03:42.470 ,4,0,38.,1.2,2496.,1.2,1.,1.2,0.,1.2
1979-07-17 00:03:43.670 ,4,0,31.,1.2,2432.,1.2,4.,1.2,0.,1.2
1979-07-17 00:03:44.870 ,4,0,26.,1.2,2496.,1.2,0.,1.2,0.,1.2
1979-07-17 00:03:46.070 ,4,0,27.,1.2,2496.,1.2,1.,1.2,0.,1.2
1979-07-17 00:03:47.270 ,4,0,19.,1.2,2496.,1.2,0.,1.2,0.,1.2
1979-07-17 00:03:48.470 ,4,0,30.,1.2,2496.,1.2,1.,1.2,0.,1.2
1979-07-17 00:03:49.670 ,4,0,24.,1.2,2560.,1.2,1.,1.2,0.,1.2
1979-07-17 00:03:50.870 ,4,0,29.,1.2,2496.,1.2,1.,1.2,0.,1.2
1979-07-17 00:03:52.070 ,4,0,26.,1.2,2432.,1.2,0.,1.2,1.,1.2
1979-07-17 00:03:53.270 ,4,0,23.,1.2,2496.,1.2,2.,1.2,0.,1.2
1979-07-17 00:03:54.470 ,4,0,21.,1.2,2496.,1.2,0.,1.2,0.,1.2
1979-07-17 00:03:55.670 ,4,0,26.,1.2,2496.,1.2,0.,1.2,0.,1.2
1979-07-17 00:03:56.870 ,4,0,30.,1.2,2496.,1.2,0.,1.2,0.,1.2
1979-07-17 00:03:58.070 ,4,0,23.,1.2,2432.,1.2,0.,1.2,0.,1.2
1979-07-17 00:03:59.270 ,5,0,30.,1.2,2496.,1.2,0.,1.2,0.,1.2
1979-07-17 00:04:00.470 ,5,0,38.,1.2,2496.,1.2,0.,1.2,0.,1.2
1979-07-17 00:04:01.670 ,5,0,28.,1.2,2368.,1.2,0.,1.2,0.,1.2
1979-07-17 00:04:02.870 ,5,0,26.,1.2,2432.,1.2,0.,1.2,0.,1.2
1979-07-17 00:04:04.070 ,5,0,35.,1.2,2368.,1.2,3.,1.2,0.,1.2
1979-07-17 00:04:05.270 ,5,0,22.,1.2,2816.,1.2,0.,1.2,0.,1.2
1979-07-17 00:04:06.470 ,5,0,22.,1.2,2624.,1.2,0.,1.2,0.,1.2
1979-07-17 00:04:07.670 ,5,0,11.,1.2,2752.,1.2,0.,1.2,0.,1.2
1979-07-17 00:04:08.870 ,5,0,25.,1.2,2624.,1.2,0.,1.2,0.,1.2
1979-07-17 00:04:10.070 ,5,0,28.,1.2,2688.,1.2,1.,1.2,0.,1.2
1979-07-17 00:04:11.270 ,5,0,22.,1.2,2624.,1.2,0.,1.2,0.,1.2
1979-07-17 00:04:12.470 ,5,0,27.,1.2,2624.,1.2,0.,1.2,0.,1.2
1979-07-17 00:04:13.670 ,5,0,25.,1.2,2688.,1.2,0.,1.2,0.,1.2
1979-07-17 00:04:14.870 ,5,0,28.,1.2,2688.,1.2,0.,1.2,0.,1.2
1979-07-17 00:04:16.070 ,5,0,29.,1.2,2752.,1.2,0.,1.2,0.,1.2
1979-07-17 00:04:17.270 ,5,0,19.,1.2,2688.,1.2,2.,1.2,0.,1.2
1979-07-17 00:04:18.470 ,5,0,24.,1.2,2752.,1.2,0.,1.2,0.,1.2
1979-07-17 00:04:19.670 ,5,0,23.,1.2,2688.,1.2,0.,1.2,0.,1.2
1979-07-17 00:04:20.870 ,5,0,19.,1.2,2688.,1.2,2.,1.2,0.,1.2
1979-07-17 00:04:22.070 ,5,0,23.,1.2,2624.,1.2,0.,1.2,0.,1.2
1979-07-17 00:04:23.270 ,5,0,16.,1.2,2752.,1.2,0.,1.2,0.,1.2
1979-07-17 00:04:24.470 ,5,0,25.,1.2,2688.,1.2,0.,1.2,0.,1.2
1979-07-17 00:04:25.670 ,5,0,22.,1.2,2752.,1.2,1.,1.2,0.,1.2
1979-07-17 00:04:26.870 ,5,0,19.,1.2,2752.,1.2,1.,1.2,1.,1.2
1979-07-17 00:04:28.070 ,5,0,21.,1.2,2688.,1.2,0.,1.2,0.,1.2
1979-07-17 00:04:29.270 ,5,0,23.,1.2,2688.,1.2,0.,1.2,0.,1.2
1979-07-17 00:04:30.470 ,5,0,21.,1.2,2752.,1.2,0.,1.2,0.,1.2
1979-07-17 00:04:31.670 ,5,0,27.,1.2,2688.,1.2,0.,1.2,0.,1.2
1979-07-17 00:04:32.870 ,5,0,20.,1.2,2752.,1.2,1.,1.2,0.,1.2
1979-07-17 00:04:34.070 ,5,0,26.,1.2,2752.,1.2,1.,1.2,0.,1.2
1979-07-17 00:04:35.270 ,5,0,21.,1.2,2816.,1.2,0.,1.2,0.,1.2
1979-07-17 00:04:36.470 ,5,0,20.,1.2,2752.,1.2,0.,1.2,0.,1.2
1979-07-17 00:04:37.670 ,5,0,28.,1.2,2752.,1.2,0.,1.2,0.,1.2
1979-07-17 00:04:38.870 ,5,0,23.,1.2,2752.,1.2,1.,1.2,0.,1.2
1979-07-17 00:04:40.070 ,5,0,28.,1.2,2688.,1.2,0.,1.2,0.,1.2
1979-07-17 00:04:41.270 ,5,0,25.,1.2,2752.,1.2,1.,1.2,0.,1.2
1979-07-17 00:04:42.470 ,5,0,31.,1.2,2752.,1.2,0.,1.2,0.,1.2
1979-07-17 00:04:43.670 ,5,0,19.,1.2,2752.,1.2,0.,1.2,0.,1.2
1979-07-17 00:04:44.870 ,5,0,30.,1.2,2752.,1.2,0.,1.2,0.,1.2
1979-07-17 00:04:46.070 ,5,0,30.,1.2,2752.,1.2,0.,1.2,0.,1.2
1979-07-17 00:04:47.270 ,6,0,25.,1.2,2752.,1.2,1.,1.2,0.,1.2
1979-07-17 00:04:48.470 ,6,0,22.,1.2,2880.,1.2,0.,1.2,0.,1.2
1979-07-17 00:04:49.670 ,6,0,34.,1.2,2752.,1.2,1.,1.2,0.,1.2
1979-07-17 00:04:50.870 ,6,0,25.,1.2,2816.,1.2,0.,1.2,0.,1.2
1979-07-17 00:04:52.070 ,6,0,18.,1.2,2752.,1.2,1.,1.2,0.,1.2
1979-07-17 00:04:53.270 ,6,0,8.,1.2,3136.,1.2,0.,1.2,0.,1.2
1979-07-17 00:04:54.470 ,6,0,18.,1.2,2816.,1.2,1.,1.2,0.,1.2
1979-07-17 00:04:55.670 ,6,0,21.,1.2,2688.,1.2,0.,1.2,0.,1.2
1979-07-17 00:04:56.870 ,6,0,21.,1.2,2688.,1.2,1.,1.2,0.,1.2
1979-07-17 00:04:58.070 ,6,0,14.,1.2,2816.,1.2,0.,1.2,0.,1.2
1979-07-17 00:04:59.270 ,6,0,20.,1.2,2816.,1.2,0.,1.2,0.,1.2
1979-07-17 00:05:00.470 ,6,0,21.,1.2,2880.,1.2,0.,1.2,0.,1.2
1979-07-17 00:05:01.670 ,6,0,17.,1.2,2688.,1.2,0.,1.2,0.,1.2
1979-07-17 00:05:02.870 ,6,0,20.,1.2,2816.,1.2,0.,1.2,0.,1.2
1979-07-17 00:05:04.070 ,6,0,13.,1.2,2752.,1.2,0.,1.2,0.,1.2
1979-07-17 00:05:05.270 ,6,0,18.,1.2,2752.,1.2,0.,1.2,0.,1.2
1979-07-17 00:05:06.470 ,6,0,18.,1.2,2624.,1.2,0.,1.2,0.,1.2
1979-07-17 00:05:07.670 ,6,0,14.,1.2,2816.,1.2,1.,1.2,0.,1.2
1979-07-17 00:05:08.870 ,6,0,20.,1.2,2752.,1.2,1.,1.2,0.,1.2
1979-07-17 00:05:10.070 ,6,0,11.,1.2,2752.,1.2,1.,1.2,0.,1.2
1979-07-17 00:05:11.270 ,6,0,26.,1.2,2880.,1.2,0.,1.2,0.,1.2
1979-07-17 00:05:12.470 ,6,0,19.,1.2,2688.,1.2,1.,1.2,1.,1.2
1979-07-17 00:05:13.670 ,6,0,15.,1.2,2752.,1.2,0.,1.2,0.,1.2
1979-07-17 00:05:14.870 ,6,0,27.,1.2,2688.,1.2,0.,1.2,0.,1.2
1979-07-17 00:05:16.070 ,6,0,12.,1.2,2688.,1.2,0.,1.2,0.,1.2
1979-07-17 00:05:17.270 ,6,0,22.,1.2,2688.,1.2,0.,1.2,0.,1.2
1979-07-17 00:05:18.470 ,6,0,13.,1.2,2752.,1.2,0.,1.2,0.,1.2
1979-07-17 00:05:19.670 ,6,0,22.,1.2,2816.,1.2,1.,1.2,0.,1.2
1979-07-17 00:05:20.870 ,6,0,18.,1.2,2752.,1.2,1.,1.2,0.,1.2
1979-07-17 00:05:22.070 ,6,0,19.,1.2,2752.,1.2,1.,1.2,0.,1.2
1979-07-17 00:05:23.270 ,6,0,17.,1.2,2688.,1.2,0.,1.2,0.,1.2
1979-07-17 00:05:24.470 ,6,0,12.,1.2,2752.,1.2,0.,1.2,0.,1.2
1979-07-17 00:05:25.670 ,6,0,24.,1.2,2752.,1.2,0.,1.2,0.,1.2
1979-07-17 00:05:26.870 ,6,0,10.,1.2,2752.,1.2,0.,1.2,0.,1.2
1979-07-17 00:05:28.070 ,6,0,21.,1.2,2752.,1.2,0.,1.2,0.,1.2
1979-07-17 00:05:29.270 ,6,0,23.,1.2,2816.,1.2,0.,1.2,0.,1.2
1979-07-17 00:05:30.470 ,6,0,15.,1.2,2752.,1.2,0.,1.2,0.,1.2
1979-07-17 00:05:31.670 ,6,0,31.,1.2,2688.,1.2,1.,1.2,0.,1.2
1979-07-17 00:05:32.870 ,6,0,18.,1.2,2752.,1.2,0.,1.2,0.,1.2
1979-07-17 00:05:34.070 ,6,0,13.,1.2,2624.,1.2,1.,1.2,0.,1.2
1979-07-17 00:05:35.270 ,7,0,16.,1.2,2880.,1.2,0.,1.2,0.,1.2
1979-07-17 00:05:36.470 ,7,0,19.,1.2,2688.,1.2,0.,1.2,0.,1.2
1979-07-17 00:05:37.670 ,7,0,11.,1.2,2752.,1.2,0.,1.2,0.,1.2
1979-07-17 00:05:38.870 ,7,0,21.,1.2,2688.,1.2,0.,1.2,0.,1.2
1979-07-17 00:05:40.070 ,7,0,20.,1.2,2752.,1.2,1.,1.2,0.,1.2
1979-07-17 00:05:41.270 ,7,0,6.,1.2,3200.,1.2,2.,1.2,0.,1.2
1979-07-17 00:05:42.470 ,7,0,0.,1.2,2816.,1.2,8.,1.2,0.,1.2
1979-07-17 00:05:43.670 ,7,0,0.,1.2,2688.,1.2,9.,1.2,0.,1.2
1979-07-17 00:05:44.870 ,7,0,0.,1.2,2688.,1.2,3.,1.2,0.,1.2
1979-07-17 00:05:46.070 ,7,0,0.,1.2,2816.,1.2,2.,1.2,0.,1.2
1979-07-17 00:05:47.270 ,7,0,0.,1.2,2752.,1.2,5.,1.2,0.,1.2
1979-07-17 00:05:48.470 ,7,0,0.,1.2,2688.,1.2,3.,1.2,0.,1.2
1979-07-17 00:05:49.670 ,7,0,0.,1.2,2752.,1.2,3.,1.2,0.,1.2
1979-07-17 00:05:50.870 ,7,0,0.,1.2,2816.,1.2,4.,1.2,0.,1.2
1979-07-17 00:05:52.070 ,7,0,0.,1.2,2816.,1.2,3.,1.2,0.,1.2
1979-07-17 00:05:53.270 ,7,0,0.,1.2,2752.,1.2,8.,1.2,0.,1.2
1979-07-17 00:05:54.470 ,7,0,0.,1.2,2816.,1.2,3.,1.2,0.,1.2
1979-07-17 00:05:55.670 ,7,0,1.,1.2,2816.,1.2,4.,1.2,0.,1.2
1979-07-17 00:05:56.870 ,7,0,0.,1.2,2752.,1.2,9.,1.2,0.,1.2
1979-07-17 00:05:58.070 ,7,0,0.,1.2,2816.,1.2,8.,1.2,0.,1.2
1979-07-17 00:05:59.270 ,7,0,0.,1.2,2752.,1.2,6.,1.2,0.,1.2
1979-07-17 00:06:00.470 ,7,0,0.,1.2,2752.,1.2,3.,1.2,0.,1.2
1979-07-17 00:06:01.670 ,7,0,0.,1.2,2816.,1.2,7.,1.2,0.,1.2
1979-07-17 00:06:02.870 ,7,0,0.,1.2,2752.,1.2,6.,1.2,0.,1.2
1979-07-17 00:06:04.070 ,7,0,0.,1.2,2880.,1.2,8.,1.2,0.,1.2
1979-07-17 00:06:05.270 ,7,0,0.,1.2,2752.,1.2,4.,1.2,0.,1.2
1979-07-17 00:06:06.470 ,7,0,2.,1.2,2880.,1.2,0.,1.2,0.,1.2
1979-07-17 00:06:07.670 ,7,0,0.,1.2,2880.,1.2,6.,1.2,0.,1.2
1979-07-17 00:06:08.870 ,7,0,0.,1.2,2880.,1.2,3.,1.2,0.,1.2
1979-07-17 00:06:10.070 ,7,0,1.,1.2,2752.,1.2,5.,1.2,0.,1.2
1979-07-17 00:06:11.270 ,7,0,0.,1.2,2880.,1.2,9.,1.2,0.,1.2
1979-07-17 00:06:12.470 ,7,0,0.,1.2,2816.,1.2,0.,1.2,0.,1.2
1979-07-17 00:06:13.670 ,7,0,0.,1.2,2752.,1.2,4.,1.2,0.,1.2
1979-07-17 00:06:14.870 ,7,0,2.,1.2,2816.,1.2,7.,1.2,0.,1.2
1979-07-17 00:06:16.070 ,7,0,0.,1.2,2816.,1.2,5.,1.2,0.,1.2
1979-07-17 00:06:17.270 ,7,0,1.,1.2,2752.,1.2,9.,1.2,0.,1.2
1979-07-17 00:06:18.470 ,7,0,1.,1.2,2688.,1.2,3.,1.2,0.,1.2
1979-07-17 00:06:19.670 ,7,0,0.,1.2,2752.,1.2,7.,1.2,0.,1.2
1979-07-17 00:06:20.870 ,7,0,0.,1.2,2880.,1.2,10.,1.2,0.,1.2
1979-07-17 00:06:22.070 ,7,0,1.,1.2,2688.,1.2,7.,1.2,0.,1.2
1979-07-17 00:06:23.270 ,7,0,0.,1.2,2880.,1.2,4.,1.2,0.,1.2
1979-07-17 00:06:24.470 ,7,0,0.,1.2,2752.,1.2,6.,1.2,0.,1.2
1979-07-17 00:06:25.670 ,7,0,0.,1.2,2816.,1.2,6.,1.2,0.,1.2
1979-07-17 00:06:26.870 ,7,0,0.,1.2,2752.,1.2,3.,1.2,0.,1.2
1979-07-17 00:06:28.070 ,7,0,0.,1.2,2816.,1.2,0.,1.2,1.,1.2
1979-07-17 00:06:29.270 ,7,0,0.,1.2,2624.,1.2,6.,1.2,0.,1.2
1979-07-17 00:06:30.470 ,7,0,0.,1.2,2752.,1.2,9.,1.2,0.,1.2
1979-07-17 00:06:31.670 ,7,0,0.,1.2,2816.,1.2,5.,1.2,0.,1.2
1979-07-17 00:06:32.870 ,7,0,0.,1.2,2816.,1.2,4.,1.2,0.,1.2
1979-07-17 00:06:34.070 ,7,0,1.,1.2,2816.,1.2,4.,1.2,0.,1.2
1979-07-17 00:06:35.270 ,7,0,0.,1.2,2816.,1.2,6.,1.2,0.,1.2
1979-07-17 00:06:36.470 ,7,0,0.,1.2,2816.,1.2,4.,1.2,0.,1.2
1979-07-17 00:06:37.670 ,7,0,0.,1.2,2880.,1.2,4.,1.2,0.,1.2
1979-07-17 00:06:38.870 ,7,0,1.,1.2,2752.,1.2,6.,1.2,0.,1.2
1979-07-17 00:06:40.070 ,7,0,1.,1.2,2880.,1.2,6.,1.2,0.,1.2
1979-07-17 00:06:41.270 ,7,0,0.,1.2,2752.,1.2,5.,1.2,0.,1.2
1979-07-17 00:06:42.470 ,7,0,0.,1.2,2688.,1.2,6.,1.2,0.,1.2
1979-07-17 00:06:43.670 ,7,0,1.,1.2,2816.,1.2,3.,1.2,0.,1.2
1979-07-17 00:06:44.870 ,7,0,1.,1.2,2816.,1.2,7.,1.2,0.,1.2
1979-07-17 00:06:46.070 ,7,0,0.,1.2,2880.,1.2,5.,1.2,0.,1.2
1979-07-17 00:06:47.270 ,7,0,0.,1.2,2752.,1.2,5.,1.2,0.,1.2
1979-07-17 00:06:48.470 ,7,0,0.,1.2,2816.,1.2,8.,1.2,0.,1.2
1979-07-17 00:06:49.670 ,7,0,0.,1.2,2752.,1.2,5.,1.2,0.,1.2
1979-07-17 00:06:50.870 ,7,0,0.,1.2,2880.,1.2,3.,1.2,0.,1.2
1979-07-17 00:06:52.070 ,7,0,0.,1.2,2752.,1.2,2.,1.2,0.,1.2
1979-07-17 00:06:53.270 ,7,0,0.,1.2,2816.,1.2,3.,1.2,0.,1.2
1979-07-17 00:06:54.470 ,7,0,1.,1.2,2752.,1.2,3.,1.2,0.,1.2
1979-07-17 00:06:55.670 ,7,0,0.,1.2,2816.,1.2,3.,1.2,0.,1.2
1979-07-17 00:06:56.870 ,7,0,0.,1.2,2880.,1.2,2.,1.2,0.,1.2
1979-07-17 00:06:58.070 ,7,0,0.,1.2,2816.,1.2,5.,1.2,0.,1.2
1979-07-17 00:06:59.270 ,7,0,0.,1.2,2880.,1.2,7.,1.2,0.,1.2
1979-07-17 00:07:00.470 ,7,0,1.,1.2,2816.,1.2,3.,1.2,0.,1.2
1979-07-17 00:07:01.670 ,7,0,0.,1.2,2880.,1.2,8.,1.2,0.,1.2
1979-07-17 00:07:02.870 ,7,0,0.,1.2,2944.,1.2,8.,1.2,0.,1.2
1979-07-17 00:07:04.070 ,7,0,1.,1.2,2880.,1.2,2.,1.2,0.,1.2
1979-07-17 00:07:05.270 ,7,0,0.,1.2,3008.,1.2,10.,1.2,0.,1.2
1979-07-17 00:07:06.470 ,7,0,0.,1.2,3136.,1.2,11.,1.2,0.,1.2
1979-07-17 00:07:07.670 ,7,0,0.,1.2,3072.,1.2,3.,1.2,0.,1.2
1979-07-17 00:07:08.870 ,7,0,0.,1.2,3008.,1.2,5.,1.2,0.,1.2
1979-07-17 00:07:10.070 ,7,0,0.,1.2,3136.,1.2,6.,1.2,1.,1.2
1979-07-17 00:07:11.270 ,0,0,0.,1.2,3072.,1.2,6.,1.2,0.,1.2
1979-07-17 00:07:12.470 ,0,0,0.,1.2,2944.,1.2,3.,1.2,0.,1.2
1979-07-17 00:07:13.670 ,0,0,0.,1.2,3072.,1.2,3.,1.2,0.,1.2
1979-07-17 00:07:14.870 ,0,0,2.,1.2,3008.,1.2,7.,1.2,0.,1.2
1979-07-17 00:07:16.070 ,0,0,0.,1.2,3072.,1.2,4.,1.2,0.,1.2
1979-07-17 00:07:17.270 ,0,0,11.,1.2,3328.,1.2,3.,1.2,0.,1.2
1979-07-17 00:07:18.470 ,0,0,15.,1.2,2816.,1.2,0.,1.2,0.,1.2
1979-07-17 00:07:19.670 ,0,0,21.,1.2,2816.,1.2,0.,1.2,0.,1.2
1979-07-17 00:07:20.870 ,0,0,17.,1.2,2816.,1.2,0.,1.2,0.,1.2
1979-07-17 00:07:22.070 ,0,0,13.,1.2,2880.,1.2,0.,1.2,0.,1.2
1979-07-17 00:07:23.270 ,0,0,17.,1.2,2752.,1.2,1.,1.2,0.,1.2
1979-07-17 00:07:24.470 ,0,0,19.,1.2,2752.,1.2,0.,1.2,0.,1.2
1979-07-17 00:07:25.670 ,0,0,17.,1.2,2816.,1.2,0.,1.2,0.,1.2
1979-07-17 00:07:26.870 ,0,0,22.,1.2,2816.,1.2,1.,1.2,0.,1.2
1979-07-17 00:07:28.070 ,0,0,10.,1.2,2880.,1.2,0.,1.2,1.,1.2
1979-07-17 00:07:29.270 ,0,0,13.,1.2,2816.,1.2,1.,1.2,1.,1.2
1979-07-17 00:07:30.470 ,0,0,11.,1.2,2624.,1.2,0.,1.2,0.,1.2
1979-07-17 00:07:31.670 ,0,0,,0,,0,,0,,0
1979-07-17 00:07:32.870 ,0,0,,0,,0,,0,,0
1979-07-17 00:07:34.070 ,0,0,,0,,0,,0,,0
1979-07-17 00:07:35.270 ,0,0,,0,,0,,0,,0
1979-07-17 00:07:36.470 ,0,0,,0,,0,,0,,0
1979-07-17 00:07:37.670 ,0,0,,0,,0,,0,,0
1979-07-17 00:07:38.870 ,0,0,,0,,0,,0,,0
1979-07-17 00:07:40.070 ,0,0,,0,,0,,0,,0
1979-07-17 00:07:41.270 ,0,0,,0,,0,,0,,0
1979-07-17 00:07:42.470 ,0,0,,0,,0,,0,,0
1979-07-17 00:07:43.670 ,0,0,,0,,0,,0,,0
1979-07-17 00:07:44.870 ,0,0,,0,,0,,0,,0
1979-07-17 00:07:46.070 ,0,0,,0,,0,,0,,0
1979-07-17 00:07:47.270 ,0,0,,0,,0,,0,,0
1979-07-17 00:07:48.470 ,0,0,,0,,0,,0,,0
1979-07-17 00:07:49.670 ,0,0,,0,,0,,0,,0
1979-07-17 00:07:50.870 ,0,0,,0,,0,,0,,0
1979-07-17 00:07:52.070 ,0,0,,0,,0,,0,,0
1979-07-17 00:07:53.270 ,0,0,,0,,0,,0,,0
1979-07-17 00:07:54.470 ,0,0,,0,,0,,0,,0
1979-07-17 00:07:55.670 ,0,0,,0,,0,,0,,0
1979-07-17 00:07:56.870 ,0,0,,0,,0,,0,,0
1979-07-17 00:07:58.070 ,0,0,,0,,0,,0,,0
1979-07-17 00:07:35.270 ,6,0,18.,1.2,2624.,1.2,1.,1.2,0.,1.2
1979-07-17 00:07:36.470 ,6,0,17.,1.2,2752.,1.2,0.,1.2,0.,1.2
1979-07-17 00:07:37.670 ,6,0,12.,1.2,2752.,1.2,1.,1.2,0.,1.2
1979-07-17 00:07:38.870 ,6,0,25.,1.2,2624.,1.2,0.,1.2,0.,1.2
1979-07-17 00:07:40.070 ,6,0,16.,1.2,2688.,1.2,2.,1.2,1.,1.2
1979-07-17 00:07:41.270 ,6,0,16.,1.2,2752.,1.2,0.,1.2,0.,1.2
1979-07-17 00:07:42.470 ,6,0,20.,1.2,2688.,1.2,1.,1.2,0.,1.2
1979-07-17 00:07:43.670 ,6,0,19.,1.2,2624.,1.2,0.,1.2,0.,1.2
1979-07-17 00:07:44.870 ,6,0,22.,1.2,2624.,1.2,2.,1.2,1.,1.2
1979-07-17 00:07:46.070 ,6,0,12.,1.2,2560.,1.2,0.,1.2,0.,1.2
1979-07-17 00:07:47.270 ,6,0,18.,1.2,2752.,1.2,0.,1.2,0.,1.2
1979-07-17 00:07:48.470 ,6,0,23.,1.2,2624.,1.2,0.,1.2,0.,1.2
1979-07-17 00:07:49.670 ,6,0,18.,1.2,2560.,1.2,0.,1.2,0.,1.2
1979-07-17 00:07:50.870 ,6,0,25.,1.2,2624.,1.2,0.,1.2,0.,1.2
1979-07-17 00:07:52.070 ,6,0,19.,1.2,2560.,1.2,0.,1.2,1.,1.2